• In Hungary
  • List of Countries
  • For 7 days
  • Water Temperature
  • Satellite Maps
  • Weather Map
  • News
  • Weather Widgets
  • user-avatar
    Login

    Hourly Weather Gruntishki

    Today, 17 August, Friday

    Time Temperature Precipitation Wind Pressure Humidity
    00:00 +15°C° 0 mm 1 mps 741 mmHg 94%
    01:00 +15°C° 0 mm 1 mps 741 mmHg 94%
    02:00 +15°C° 0 mm 1 mps 741 mmHg 95%
    03:00 +15°C° 0 mm 1 mps 741 mmHg 95%
    04:00 +14°C° 0 mm 1 mps 741 mmHg 95%
    05:00 +14°C° 0 mm 1 mps 741 mmHg 96%
    06:00 +16°C° 0 mm 2 mps 741 mmHg 92%
    07:00 +17°C° 0 mm 2 mps 741 mmHg 88%
    08:00 +18°C° 0 mm 2 mps 741 mmHg 85%
    09:00 +20°C° 0 mm 2 mps 741 mmHg 79%
    10:00 +21°C° 0 mm 2 mps 741 mmHg 74%
    11:00 +23°C° 0 mm 2 mps 741 mmHg 69%
    12:00 +24°C° 0.1 mm 2 mps 741 mmHg 66%
    13:00 +25°C° 0.1 mm 2 mps 741 mmHg 63%
    14:00 +25°C° 0.1 mm 2 mps 741 mmHg 61%
    15:00 +25°C° 0.1 mm 2 mps 740 mmHg 62%
    16:00 +25°C° 0.1 mm 2 mps 740 mmHg 63%
    17:00 +25°C° 0.1 mm 2 mps 740 mmHg 64%
    18:00 +24°C° 0 mm 2 mps 740 mmHg 71%
    19:00 +21°C° 0 mm 2 mps 740 mmHg 78%
    20:00 +19°C° 0 mm 2 mps 739 mmHg 85%
    21:00 +19°C° 0 mm 2 mps 740 mmHg 88%
    22:00 +18°C° 0 mm 2 mps 740 mmHg 90%
    23:00 +18°C° 0 mm 2 mps 740 mmHg 93%

    Tomorrow, 18 August, Saturday

    Time Temperature Precipitation Wind Pressure Humidity
    00:00 +17°C° 0 mm 2 mps 740 mmHg 94%
    01:00 +17°C° 0 mm 2 mps 740 mmHg 94%
    02:00 +17°C° 0 mm 2 mps 740 mmHg 95%
    03:00 +17°C° 0 mm 2 mps 740 mmHg 95%
    04:00 +16°C° 0 mm 2 mps 740 mmHg 96%
    05:00 +16°C° 0 mm 2 mps 740 mmHg 96%
    06:00 +17°C° 0 mm 2 mps 740 mmHg 93%
    07:00 +19°C° 0 mm 2 mps 740 mmHg 89%
    08:00 +20°C° 0 mm 2 mps 740 mmHg 86%
    09:00 +21°C° 0.7 mm 2 mps 740 mmHg 81%
    10:00 +24°C° 0.7 mm 2 mps 740 mmHg 75%
    11:00 +25°C° 0.7 mm 2 mps 740 mmHg 70%
    12:00 +25°C° 0.8 mm 2 mps 740 mmHg 69%
    13:00 +25°C° 0.8 mm 2 mps 740 mmHg 68%
    14:00 +26°C° 0.8 mm 2 mps 740 mmHg 68%
    15:00 +26°C° 0.2 mm 2 mps 739 mmHg 68%
    16:00 +26°C° 0.2 mm 1 mps 739 mmHg 67%
    17:00 +26°C° 0.2 mm 1 mps 739 mmHg 67%
    18:00 +24°C° 0.2 mm 1 mps 739 mmHg 73%
    19:00 +23°C° 0.2 mm 1 mps 739 mmHg 78%
    20:00 +21°C° 0.2 mm 1 mps 739 mmHg 84%
    21:00 +20°C° 0.5 mm 1 mps 739 mmHg 86%
    22:00 +20°C° 0.5 mm 1 mps 739 mmHg 88%
    23:00 +20°C° 0.5 mm 1 mps 739 mmHg 89%

    Day after tomorrow, 19 August, Sunday

    Time Temperature Precipitation Wind Pressure Humidity
    00:00 +19°C° 0.5 mm 1 mps 739 mmHg 90%
    01:00 +19°C° 0.5 mm 1 mps 739 mmHg 91%
    02:00 +19°C° 0.5 mm 1 mps 739 mmHg 92%
    03:00 +18°C° 0 mm 1 mps 739 mmHg 92%
    04:00 +18°C° 0 mm 1 mps 739 mmHg 92%
    05:00 +18°C° 0 mm 1 mps 739 mmHg 93%
    06:00 +19°C° 0 mm 1 mps 739 mmHg 88%
    07:00 +21°C° 0 mm 1 mps 739 mmHg 84%
    08:00 +22°C° 0 mm 1 mps 739 mmHg 80%
    09:00 +23°C° 0.1 mm 1 mps 739 mmHg 74%
    10:00 +24°C° 0.1 mm 2 mps 739 mmHg 69%
    11:00 +26°C° 0.1 mm 2 mps 739 mmHg 63%
    12:00 +26°C° 0.2 mm 2 mps 739 mmHg 61%
    13:00 +26°C° 0.2 mm 2 mps 739 mmHg 59%
    14:00 +27°C° 0.2 mm 3 mps 739 mmHg 57%
    15:00 +26°C° 0.5 mm 3 mps 739 mmHg 62%
    16:00 +25°C° 0.5 mm 3 mps 738 mmHg 66%
    17:00 +25°C° 0.5 mm 3 mps 738 mmHg 71%
    18:00 +22°C° 0.2 mm 3 mps 739 mmHg 76%
    19:00 +20°C° 0.2 mm 2 mps 739 mmHg 81%
    20:00 +18°C° 0.2 mm 2 mps 739 mmHg 86%
    21:00 +18°C° 0 mm 2 mps 739 mmHg 87%
    22:00 +17°C° 0 mm 2 mps 739 mmHg 88%
    23:00 +16°C° 0 mm 2 mps 739 mmHg 89%

    20 August, Monday

    Time Temperature Precipitation Wind Pressure Humidity
    00:00 +16°C° 0 mm 2 mps 739 mmHg 91%
    01:00 +16°C° 0 mm 2 mps 739 mmHg 92%
    02:00 +16°C° 0 mm 2 mps 739 mmHg 93%
    03:00 +16°C° 0 mm 2 mps 739 mmHg 93%
    04:00 +16°C° 0 mm 2 mps 739 mmHg 94%
    05:00 +15°C° 0 mm 2 mps 739 mmHg 95%
    06:00 +16°C° 0 mm 2 mps 739 mmHg 92%
    07:00 +17°C° 0 mm 2 mps 739 mmHg 89%
    08:00 +18°C° 0 mm 2 mps 740 mmHg 85%
    09:00 +19°C° 0 mm 3 mps 740 mmHg 79%
    10:00 +20°C° 0 mm 3 mps 740 mmHg 73%
    11:00 +22°C° 0 mm 3 mps 740 mmHg 67%
    12:00 +22°C° 0 mm 3 mps 740 mmHg 65%
    13:00 +24°C° 0 mm 3 mps 740 mmHg 63%
    14:00 +24°C° 0 mm 3 mps 740 mmHg 61%
    15:00 +24°C° 0.1 mm 3 mps 739 mmHg 64%
    16:00 +22°C° 0.1 mm 3 mps 739 mmHg 67%
    17:00 +22°C° 0.1 mm 3 mps 739 mmHg 71%
    18:00 +21°C° 0.1 mm 2 mps 739 mmHg 76%
    19:00 +19°C° 0.1 mm 2 mps 739 mmHg 81%
    20:00 +19°C° 0.1 mm 1 mps 739 mmHg 86%
    21:00 +19°C° 0 mm 1 mps 739 mmHg 87%
    22:00 +18°C° 0 mm 1 mps 739 mmHg 88%
    23:00 +18°C° 0 mm 1 mps 739 mmHg 88%

    21 August, Tuesday

    Time Temperature Precipitation Wind Pressure Humidity
    00:00 +18°C° 0 mm 1 mps 739 mmHg 90%
    01:00 +16°C° 0 mm 1 mps 739 mmHg 91%
    02:00 +16°C° 0 mm 1 mps 739 mmHg 92%
    03:00 +16°C° 0 mm 1 mps 739 mmHg 92%
    04:00 +16°C° 0 mm 1 mps 739 mmHg 93%
    05:00 +16°C° 0 mm 1 mps 739 mmHg 94%
    06:00 +16°C° 0.2 mm 1 mps 739 mmHg 92%
    07:00 +18°C° 0.2 mm 1 mps 739 mmHg 91%
    08:00 +18°C° 0.2 mm 2 mps 739 mmHg 89%
    09:00 +20°C° 0.4 mm 2 mps 739 mmHg 84%
    10:00 +21°C° 0.4 mm 2 mps 739 mmHg 79%
    11:00 +23°C° 0.4 mm 2 mps 739 mmHg 73%
    12:00 +24°C° 1.1 mm 3 mps 739 mmHg 73%
    13:00 +24°C° 1.1 mm 3 mps 739 mmHg 72%
    14:00 +24°C° 1.1 mm 3 mps 738 mmHg 71%
    15:00 +24°C° 0.3 mm 3 mps 738 mmHg 72%
    16:00 +24°C° 0.3 mm 3 mps 738 mmHg 73%
    17:00 +24°C° 0.3 mm 3 mps 738 mmHg 74%
    18:00 +22°C° 0.1 mm 3 mps 738 mmHg 79%
    19:00 +20°C° 0.1 mm 3 mps 738 mmHg 85%
    20:00 +19°C° 0.1 mm 2 mps 738 mmHg 90%
    21:00 +18°C° 0 mm 2 mps 738 mmHg 91%
    22:00 +18°C° 0 mm 2 mps 738 mmHg 92%
    23:00 +17°C° 0 mm 2 mps 738 mmHg 94%

    22 August, Wednesday

    Time Temperature Precipitation Wind Pressure Humidity
    00:00 +17°C° 0 mm 2 mps 739 mmHg 94%
    01:00 +17°C° 0 mm 2 mps 739 mmHg 95%
    02:00 +16°C° 0 mm 2 mps 739 mmHg 95%
    03:00 +16°C° 0 mm 2 mps 739 mmHg 96%
    04:00 +16°C° 0 mm 2 mps 739 mmHg 96%
    05:00 +16°C° 0 mm 2 mps 739 mmHg 96%
    06:00 +17°C° 0 mm 2 mps 739 mmHg 93%
    07:00 +19°C° 0 mm 1 mps 740 mmHg 89%
    08:00 +20°C° 0 mm 1 mps 740 mmHg 86%
    09:00 +20°C° 0 mm 2 mps 740 mmHg 79%
    10:00 +23°C° 0 mm 2 mps 740 mmHg 72%
    11:00 +24°C° 0 mm 2 mps 740 mmHg 65%
    12:00 +25°C° 0 mm 2 mps 740 mmHg 63%
    13:00 +25°C° 0 mm 2 mps 739 mmHg 61%
    14:00 +26°C° 0 mm 2 mps 739 mmHg 59%
    15:00 +26°C° 0 mm 2 mps 739 mmHg 61%
    16:00 +26°C° 0 mm 2 mps 739 mmHg 62%
    17:00 +26°C° 0 mm 2 mps 739 mmHg 64%
    18:00 +24°C° 0.1 mm 1 mps 738 mmHg 70%
    19:00 +23°C° 0.1 mm 1 mps 738 mmHg 76%
    20:00 +21°C° 0.1 mm 1 mps 738 mmHg 82%
    21:00 +21°C° 0 mm 1 mps 738 mmHg 83%
    22:00 +20°C° 0 mm 2 mps 738 mmHg 85%
    23:00 +19°C° 0 mm 2 mps 738 mmHg 87%
    Show more